Terminal Aerodrome Forecast
Issued by NWS

Home | Current Version | Previous Version | Text Only | Print | Product List | Glossary On
Versions: 1 2 3 4 5 6 7 8 9 10 11 12 13 14 15 16 17
000
FTUS42 TJSJ 191100
TAFIST
TAF
TIST 191126Z 1912/2012 11009KT P6SM VCSH FEW026 SCT035
      TEMPO 1912/1914 VRB12KT 5SM SHRA SCT022 BKN035
     FM191430 12016KT P6SM FEW028 SCT070
     FM192300 09014KT P6SM FEW025 SCT050 SCT070=

USA.gov is the U.S. government's official web portal to all federal, state and local government web resources and services.